EW7351 Weather Reports


Display with metric or nautical units.
time (UTC)temp
F
wind
direction
speed
MPH
gust
MPH
rain 1hr
in
rain 24hr
in
rain mn
in
humidity
%
barometer
mb
20220629035041 81 74 1.0 6.0 0.00 0.00 0.00 53 1017.2
20220629034542 81 84 1.0 6.0 0.00 0.00 0.00 53 1017.2
20220629034040 81 27 1.0 6.0 0.00 0.00 0.00 53 1017.1
20220629033541 81 30 1.0 6.0 0.00 0.00 0.00 53 1017.1
20220629033041 81 351 0.0 2.0 0.00 0.00 0.00 53 1017.0
20220629032543 81 25 1.0 4.0 0.00 0.00 0.00 52 1017.1
20220629032037 82 60 1.0 4.0 0.00 0.00 0.00 52 1016.9
20220629031735 83 31 0.0 2.0 0.00 0.00 0.00 46 1016.5
20220629031724 82 71 1.0 6.0 0.00 0.00 0.00 51 1016.8
20220629031707 82 330 1.0 6.0 0.00 0.00 0.00 51 1016.7
20220629031650 82 4 1.0 5.0 0.00 0.00 0.00 49 1016.6
20220629030037 83 31 0.0 2.0 0.00 0.00 0.00 46 1016.5
20220629025537 83 88 0.0 2.0 0.00 0.00 0.00 46 1016.4
20220629025037 83 65 0.0 2.0 0.00 0.00 0.00 46 1016.4
20220629024537 83 53 0.0 2.0 0.00 0.00 0.00 45 1016.3
20220629024037 83 54 0.0 1.0 0.00 0.00 0.00 45 1016.2
20220629023533 83 54 0.0 3.0 0.00 0.00 0.00 44 1016.2
20220629023033 83 54 0.0 3.0 0.00 0.00 0.00 44 1016.2
20220629022534 83 60 0.0 1.0 0.00 0.00 0.00 44 1016.2
20220629022033 83 53 0.0 1.0 0.00 0.00 0.00 42 1016.2
20220629021534 84 53 0.0 2.0 0.00 0.00 0.00 41 1016.1
20220629021034 84 49 0.0 2.0 0.00 0.00 0.00 41 1016.1
20220629020532 84 61 0.0 1.0 0.00 0.00 0.00 40 1016.0
20220629020033 85 87 0.0 1.0 0.00 0.00 0.00 39 1016.0
20220629015533 85 89 0.0 1.0 0.00 0.00 0.00 39 1015.9
20220629015029 85 119 0.0 3.0 0.00 0.00 0.00 38 1015.8
20220629014529 86 60 1.0 3.0 0.00 0.00 0.00 37 1015.8
20220629014029 86 53 1.0 3.0 0.00 0.00 0.00 36 1015.8
20220629013529 86 75 1.0 4.0 0.00 0.00 0.00 35 1015.7
20220629013029 87 70 1.0 6.0 0.00 0.00 0.00 35 1015.7
20220629012532 87 64 1.0 6.0 0.00 0.00 0.00 34 1015.7
20220629012031 87 124 1.0 4.0 0.00 0.00 0.00 34 1015.7
20220629011531 88 92 1.0 6.0 0.00 0.00 0.00 33 1015.7
20220629011032 88 61 2.0 6.0 0.00 0.00 0.00 33 1015.6
20220629010529 88 117 2.0 5.0 0.00 0.00 0.00 33 1015.6
20220629010027 89 53 2.0 8.0 0.00 0.00 0.00 32 1015.5
20220629005527 89 102 2.0 8.0 0.00 0.00 0.00 32 1015.4
20220629005025 89 84 2.0 7.0 0.00 0.00 0.00 32 1015.4
20220629004525 89 83 2.0 8.0 0.00 0.00 0.00 32 1015.3
20220629004024 89 50 2.0 8.0 0.00 0.00 0.00 31 1015.4
20220629003524 89 56 2.0 5.0 0.00 0.00 0.00 31 1015.4
20220629003025 90 99 1.0 5.0 0.00 0.00 0.00 31 1015.3
20220629002526 90 64 1.0 5.0 0.00 0.00 0.00 32 1015.2
20220629002025 90 88 2.0 8.0 0.00 0.00 0.00 31 1015.2
20220629001524 90 70 2.0 8.0 0.00 0.00 0.00 30 1015.2
20220629001022 90 75 3.0 8.0 0.00 0.00 0.00 31 1015.2
20220629000522 90 354 3.0 8.0 0.00 0.00 0.00 32 1015.2
20220629000022 90 44 3.0 8.0 0.00 0.00 0.00 32 1015.1
20220628235521 90 63 2.0 7.0 0.00 0.00 0.00 31 1015.1
20220628235022 90 112 3.0 9.0 0.00 0.00 0.00 31 1015.2
20220628234522 90 79 3.0 9.0 0.00 0.00 0.00 32 1015.1
20220628234022 90 7 2.0 9.0 0.00 0.00 0.00 32 1015.1
20220628233523 90 60 2.0 9.0 0.00 0.00 0.00 31 1015.2
20220628233022 90 55 3.0 7.0 0.00 0.00 0.00 31 1015.2
20220628232521 90 56 3.0 8.0 0.00 0.00 0.00 32 1015.2
20220628232021 91 346 1.0 8.0 0.00 0.00 0.00 30 1015.2
20220628231520 91 72 2.0 8.0 0.00 0.00 0.00 31 1015.3
20220628231019 91 94 3.0 8.0 0.00 0.00 0.00 29 1015.3
20220628230518 91 195 3.0 8.0 0.00 0.00 0.00 28 1015.3
20220628230018 91 37 2.0 8.0 0.00 0.00 0.00 30 1015.4
20220628225518 92 66 2.0 7.0 0.00 0.00 0.00 30 1015.4
20220628225018 92 62 2.0 6.0 0.00 0.00 0.00 30 1015.5
20220628224514 91 64 3.0 7.0 0.00 0.00 0.00 28 1015.6
20220628224014 91 56 3.0 7.0 0.00 0.00 0.00 30 1015.6
20220628223512 91 13 2.0 8.0 0.00 0.00 0.00 30 1015.7
20220628223012 91 37 2.0 8.0 0.00 0.00 0.00 29 1015.9
20220628222512 90 31 2.0 7.0 0.00 0.00 0.00 30 1016.0
20220628222011 90 64 2.0 7.0 0.00 0.00 0.00 30 1016.1
20220628221508 91 79 2.0 6.0 0.00 0.00 0.00 29 1016.3
20220628221008 91 336 2.0 7.0 0.00 0.00 0.00 30 1016.4
20220628220509 90 70 2.0 7.0 0.00 0.00 0.00 30 1016.4
20220628220006 90 6 3.0 9.0 0.00 0.00 0.00 31 1016.5
20220628215506 91 48 3.0 9.0 0.00 0.00 0.00 31 1016.6
20220628215004 91 350 2.0 7.0 0.00 0.00 0.00 32 1016.6
20220628214504 90 310 4.0 12.0 0.00 0.00 0.00 32 1016.7
20220628214000 90 58 4.0 12.0 0.00 0.00 0.00 32 1016.8
20220628213500 90 338 2.0 12.0 0.00 0.00 0.00 32 1016.8
20220628213001 90 1 2.0 9.0 0.00 0.00 0.00 31 1016.9
20220628212502 90 50 2.0 7.0 0.00 0.00 0.00 34 1016.9
20220628211959 90 57 2.0 7.0 0.00 0.00 0.00 34 1017.1
20220628211500 90 339 1.0 5.0 0.00 0.00 0.00 33 1017.2
20220628210958 90 356 2.0 7.0 0.00 0.00 0.00 33 1017.4
20220628210459 90 354 2.0 7.0 0.00 0.00 0.00 33 1017.4
20220628205957 90 56 2.0 6.0 0.00 0.00 0.00 32 1017.6
20220628205454 92 328 2.0 8.0 0.00 0.00 0.00 31 1017.5
20220628204953 92 293 2.0 8.0 0.00 0.00 0.00 32 1017.5
20220628204452 93 27 1.0 9.0 0.00 0.00 0.00 33 1017.7
20220628203952 92 56 1.0 9.0 0.00 0.00 0.00 34 1017.8
20220628203452 92 337 1.0 8.0 0.00 0.00 0.00 35 1017.8
20220628202953 91 9 1.0 8.0 0.00 0.00 0.00 34 1017.9
20220628202453 91 8 2.0 7.0 0.00 0.00 0.00 34 1018.0
20220628201952 90 122 2.0 7.0 0.00 0.00 0.00 34 1017.9
20220628201450 90 8 2.0 7.0 0.00 0.00 0.00 34 1018.0
20220628200950 90 34 2.0 8.0 0.00 0.00 0.00 35 1018.0
20220628200452 89 59 2.0 8.0 0.00 0.00 0.00 36 1018.1
20220628195949 89 348 3.0 11.0 0.00 0.00 0.00 36 1018.2
20220628195449 89 66 3.0 11.0 0.00 0.00 0.00 35 1018.2
20220628194948 90 62 2.0 8.0 0.00 0.00 0.00 36 1018.3
20220628194448 89 280 3.0 8.0 0.00 0.00 0.00 35 1018.3
20220628193948 89 45 3.0 10.0 0.00 0.00 0.00 36 1018.3
20220628193449 89 63 2.0 10.0 0.00 0.00 0.00 35 1018.3
20220628192945 89 18 3.0 9.0 0.00 0.00 0.00 35 1018.4
20220628192444 88 52 4.0 10.0 0.00 0.00 0.00 35 1018.4
20220628191944 89 350 3.0 10.0 0.00 0.00 0.00 36 1018.3
20220628191445 89 61 3.0 8.0 0.00 0.00 0.00 35 1018.4
20220628190945 89 122 2.0 8.0 0.00 0.00 0.00 35 1018.4
20220628190444 88 36 3.0 8.0 0.00 0.00 0.00 36 1018.5
20220628185944 87 69 3.0 8.0 0.00 0.00 0.00 37 1018.6
20220628185445 87 58 3.0 9.0 0.00 0.00 0.00 39 1018.7
20220628184944 87 70 4.0 11.0 0.00 0.00 0.00 38 1018.8
20220628184440 87 71 4.0 11.0 0.00 0.00 0.00 37 1018.9
20220628183941 87 3 3.0 11.0 0.00 0.00 0.00 37 1018.9
20220628183440 88 76 2.0 9.0 0.00 0.00 0.00 37 1019.0
20220628182940 87 163 2.0 7.0 0.00 0.00 0.00 39 1019.1
20220628182440 87 38 3.0 9.0 0.00 0.00 0.00 38 1019.2
20220628181940 87 124 2.0 9.0 0.00 0.00 0.00 38 1019.3
20220628181440 86 53 3.0 11.0 0.00 0.00 0.00 39 1019.3
20220628180940 86 345 4.0 11.0 0.00 0.00 0.00 38 1019.3
20220628180440 86 82 3.0 10.0 0.00 0.00 0.00 39 1019.3
20220628175936 86 15 4.0 10.0 0.00 0.00 0.00 39 1019.3
20220628175436 86 70 4.0 10.0 0.00 0.00 0.00 38 1019.4
20220628174936 86 58 3.0 10.0 0.00 0.00 0.00 38 1019.6
20220628174436 87 52 3.0 9.0 0.00 0.00 0.00 38 1019.5
20220628173936 86 343 3.0 9.0 0.00 0.00 0.00 38 1019.5
20220628173436 86 116 3.0 8.0 0.00 0.00 0.00 38 1019.5
20220628172936 86 357 3.0 7.0 0.00 0.00 0.00 39 1019.5
20220628172436 86 86 3.0 9.0 0.00 0.00 0.00 40 1019.5
20220628171936 85 147 4.0 9.0 0.00 0.00 0.00 38 1019.7
20220628171436 86 52 4.0 9.0 0.00 0.00 0.00 40 1019.6
20220628170939 85 41 3.0 8.0 0.00 0.00 0.00 40 1019.5
20220628170440 86 65 2.0 8.0 0.00 0.00 0.00 38 1019.7
20220628165933 85 303 2.0 9.0 0.00 0.00 0.00 40 1019.7
20220628165433 85 71 2.0 9.0 0.00 0.00 0.00 38 1019.8
20220628164934 85 45 2.0 9.0 0.00 0.00 0.00 41 1019.7
20220628164434 85 71 3.0 10.0 0.00 0.00 0.00 38 1019.7
20220628163929 84 69 3.0 10.0 0.00 0.00 0.00 41 1019.8
20220628163430 84 64 3.0 7.0 0.00 0.00 0.00 39 1019.7
20220628162930 84 57 4.0 10.0 0.00 0.00 0.00 40 1019.8
20220628162430 83 19 5.0 11.0 0.00 0.00 0.00 40 1019.8
20220628161930 83 72 5.0 12.0 0.00 0.00 0.00 40 1019.9
20220628161430 84 56 4.0 12.0 0.00 0.00 0.00 39 1019.8
20220628160929 83 41 4.0 12.0 0.00 0.00 0.00 41 1019.8
20220628160429 83 60 3.0 12.0 0.00 0.00 0.00 41 1019.8
20220628155929 83 71 3.0 9.0 0.00 0.00 0.00 41 1019.7
20220628155426 83 162 4.0 9.0 0.00 0.00 0.00 41 1019.8
20220628154926 83 59 4.0 9.0 0.00 0.00 0.00 41 1019.7
20220628154425 83 266 4.0 9.0 0.00 0.00 0.00 43 1019.6
20220628153926 83 38 4.0 10.0 0.00 0.00 0.00 44 1019.5
20220628153426 82 46 3.0 10.0 0.00 0.00 0.00 42 1019.5
20220628152927 82 98 3.0 11.0 0.00 0.00 0.00 44 1019.6
20220628152426 82 70 4.0 11.0 0.00 0.00 0.00 43 1019.4
20220628151926 82 14 3.0 8.0 0.00 0.00 0.00 45 1019.4
20220628151426 81 53 3.0 9.0 0.00 0.00 0.00 45 1019.5
20220628150922 81 63 3.0 9.0 0.00 0.00 0.00 46 1019.6
20220628150423 81 49 3.0 10.0 0.00 0.00 0.00 46 1019.7
20220628145922 80 224 3.0 10.0 0.00 0.00 0.00 47 1019.6
20220628145422 80 90 3.0 9.0 0.00 0.00 0.00 48 1019.5
20220628144922 79 92 4.0 9.0 0.00 0.00 0.00 48 1019.5
20220628144420 79 42 3.0 9.0 0.00 0.00 0.00 48 1019.6
20220628143920 79 70 2.0 9.0 0.00 0.00 0.00 51 1019.7
20220628143420 79 63 3.0 9.0 0.00 0.00 0.00 50 1019.5
20220628142920 79 71 3.0 8.0 0.00 0.00 0.00 51 1019.4
20220628142420 79 67 2.0 8.0 0.00 0.00 0.00 50 1019.5
20220628141921 79 57 3.0 11.0 0.00 0.00 0.00 50 1019.5
20220628141419 79 109 4.0 11.0 0.00 0.00 0.00 49 1019.4
20220628140920 79 60 3.0 10.0 0.00 0.00 0.00 51 1019.4
20220628140419 80 86 2.0 7.0 0.00 0.00 0.00 52 1019.4
20220628135918 79 73 2.0 7.0 0.00 0.00 0.00 53 1019.4
20220628135416 80 75 2.0 7.0 0.00 0.00 0.00 53 1019.4
20220628134916 79 51 2.0 8.0 0.00 0.00 0.00 54 1019.4
20220628134417 78 52 3.0 8.0 0.00 0.00 0.00 55 1019.4
20220628133911 78 63 3.0 8.0 0.00 0.00 0.00 54 1019.3
20220628133412 78 47 3.0 9.0 0.00 0.00 0.00 57 1019.2
20220628132911 78 80 3.0 9.0 0.00 0.00 0.00 57 1019.2
20220628132411 78 68 2.0 7.0 0.00 0.00 0.00 58 1019.2
20220628131909 78 69 2.0 7.0 0.00 0.00 0.00 61 1019.2
20220628131409 77 338 2.0 7.0 0.00 0.00 0.00 63 1019.1
20220628130909 77 55 2.0 7.0 0.00 0.00 0.00 64 1019.0
20220628130406 77 71 2.0 6.0 0.00 0.00 0.00 64 1019.0
20220628125905 77 59 1.0 6.0 0.00 0.00 0.00 64 1019.0
20220628125406 77 7 2.0 6.0 0.00 0.00 0.00 63 1018.9
20220628124901 77 40 1.0 6.0 0.00 0.00 0.00 62 1018.9
20220628124402 77 68 0.0 4.0 0.00 0.00 0.00 62 1018.9
20220628123859 76 68 0.0 3.0 0.00 0.00 0.00 63 1018.9
20220628123400 75 67 0.0 3.0 0.00 0.00 0.00 64 1018.8
20220628122859 75 60 0.0 3.0 0.00 0.00 0.00 66 1018.8
20220628122356 75 49 0.0 3.0 0.00 0.00 0.00 67 1018.9
20220628121854 75 82 0.0 2.0 0.00 0.00 0.00 67 1018.9
20220628121352 75 53 0.0 3.0 0.00 0.00 0.00 68 1018.9
20220628120849 74 29 0.0 3.0 0.00 0.00 0.00 69 1018.9
20220628120348 73 30 0.0 0.0 0.00 0.00 0.00 71 1018.9
20220628115851 73 30 0.0 0.0 0.00 0.00 0.00 72 1018.8
20220628115346 72 30 0.0 1.0 0.00 0.00 0.00 73 1018.6
20220628114838 72 41 0.0 1.0 0.00 0.00 0.00 73 1018.6
20220628114336 72 68 0.0 1.0 0.00 0.00 0.00 74 1018.6
20220628113834 72 68 0.0 1.0 0.00 0.00 0.00 74 1018.6
20220628113329 72 151 0.0 0.0 0.00 0.00 0.00 74 1018.6
20220628112829 72 151 0.0 0.0 0.00 0.00 0.00 74 1018.6
20220628112330 72 151 0.0 0.0 0.00 0.00 0.00 74 1018.6
20220628111827 72 151 0.0 0.0 0.00 0.00 0.00 74 1018.5
20220628111327 72 151 0.0 0.0 0.00 0.00 0.00 73 1018.6
20220628110827 72 151 0.0 0.0 0.00 0.00 0.00 73 1018.5
20220628110325 72 151 0.0 0.0 0.00 0.00 0.00 73 1018.4
20220628105825 72 151 0.0 0.0 0.00 0.00 0.00 72 1018.3
20220628105322 73 151 0.0 0.0 0.00 0.00 0.00 72 1018.3
20220628104823 73 151 0.0 0.0 0.00 0.00 0.00 72 1018.3
20220628104322 73 151 0.0 0.0 0.00 0.00 0.00 72 1018.4
20220628103818 73 151 0.0 0.0 0.00 0.00 0.00 72 1018.4
20220628103316 73 151 0.0 0.0 0.00 0.00 0.00 72 1018.5
20220628102816 73 151 0.0 0.0 0.00 0.00 0.00 72 1018.5
20220628102316 73 151 0.0 0.0 0.00 0.00 0.00 72 1018.5
20220628101813 73 151 0.0 0.0 0.00 0.00 0.00 72 1018.5
20220628101313 73 151 0.0 0.0 0.00 0.00 0.00 71 1018.5
20220628100814 73 151 0.0 0.0 0.00 0.00 0.00 70 1018.4
20220628100310 74 151 0.0 0.0 0.00 0.00 0.00 70 1018.3
20220628095810 74 151 0.0 0.0 0.00 0.00 0.00 70 1018.3
20220628095311 74 151 0.0 0.0 0.00 0.00 0.00 69 1018.3
20220628094809 74 160 0.0 1.0 0.00 0.00 0.00 69 1018.3
20220628094309 74 160 0.0 1.0 0.00 0.00 0.00 70 1018.2
20220628093809 74 172 0.0 0.0 0.00 0.00 0.00 70 1018.3
20220628093309 74 172 0.0 0.0 0.00 0.00 0.00 70 1018.3
20220628092809 74 172 0.0 2.0 0.00 0.00 0.00 70 1018.3
20220628092309 75 172 0.0 2.0 0.00 0.00 0.00 70 1018.1
20220628091809 75 122 0.0 2.0 0.00 0.00 0.00 70 1018.1
20220628091309 75 121 0.0 3.0 0.00 0.00 0.00 70 1018.1
20220628090809 75 69 0.0 3.0 0.00 0.00 0.00 70 1018.0
20220628090309 75 124 0.0 5.0 0.00 0.00 0.00 70 1017.9
20220628085807 75 45 0.0 5.0 0.00 0.00 0.00 70 1017.9
20220628085307 75 41 0.0 2.0 0.00 0.00 0.00 71 1017.9
20220628084807 75 141 0.0 3.0 0.00 0.00 0.00 71 1017.9
20220628084305 75 174 0.0 3.0 0.00 0.00 0.00 70 1017.8
20220628083805 75 70 0.0 4.0 0.00 0.00 0.00 70 1017.8
20220628083306 76 186 1.0 7.0 0.00 0.00 0.00 70 1017.7
20220628082805 76 104 1.0 7.0 0.00 0.00 0.00 70 1017.7
20220628082305 76 72 0.0 5.0 0.00 0.00 0.00 71 1017.8
20220628081805 76 70 0.0 6.0 0.00 0.00 0.00 70 1017.8
20220628081305 76 87 0.0 6.0 0.00 0.00 0.00 70 1017.8
20220628080805 76 115 0.0 4.0 0.00 0.00 0.00 70 1017.8
20220628080306 76 46 0.0 6.0 0.00 0.00 0.00 70 1017.8
20220628075805 76 50 0.0 6.0 0.00 0.00 0.00 70 1017.7
20220628075305 76 69 0.0 4.0 0.00 0.00 0.00 70 1017.8
20220628074805 77 72 0.0 2.0 0.00 0.00 0.00 70 1017.9
20220628074305 77 94 0.0 3.0 0.00 0.00 0.00 71 1018.1
20220628073804 77 72 0.0 4.0 0.00 0.00 0.00 71 1018.1
20220628073305 77 88 0.0 4.0 0.00 0.00 0.00 71 1018.1
20220628072805 77 70 0.0 1.0 0.00 0.00 0.00 71 1018.1
20220628072306 77 35 0.0 4.0 0.00 0.00 0.00 71 1018.1
20220628071805 77 84 0.0 7.0 0.00 0.00 0.00 71 1018.0
20220628071305 77 60 0.0 7.0 0.00 0.00 0.00 72 1018.0
20220628070806 77 42 0.0 4.0 0.00 0.00 0.00 71 1018.0
20220628070305 77 57 0.0 4.0 0.00 0.00 0.00 71 1018.0
20220628065801 78 91 0.0 3.0 0.00 0.00 0.00 71 1018.0
20220628065302 78 86 0.0 6.0 0.00 0.00 0.00 71 1018.0
20220628064801 77 108 0.0 6.0 0.00 0.00 0.00 71 1018.1
20220628064300 78 136 0.0 3.0 0.00 0.00 0.00 71 1018.2
20220628063759 78 110 0.0 2.0 0.00 0.00 0.00 71 1018.2
20220628063302 78 91 0.0 3.0 0.00 0.00 0.00 71 1018.1
20220628062800 78 102 0.0 3.0 0.00 0.00 0.00 71 1018.2
20220628062259 78 89 0.0 1.0 0.00 0.00 0.00 71 1018.2
20220628061759 78 89 0.0 1.0 0.00 0.00 0.00 71 1018.1
20220628061255 79 96 0.0 3.0 0.00 0.00 0.00 70 1018.1
20220628060754 79 59 0.0 3.0 0.00 0.00 0.00 70 1018.1
20220628060256 79 75 0.0 3.0 0.00 0.00 0.00 70 1018.1
20220628055756 79 120 0.0 3.0 0.00 0.00 0.00 69 1018.1
20220628055255 79 75 0.0 3.0 0.00 0.00 0.00 69 1018.2
20220628054756 79 129 0.0 4.0 0.00 0.00 0.00 69 1018.2
20220628054255 79 86 0.0 4.0 0.00 0.00 0.00 69 1018.1
20220628053755 79 66 0.0 2.0 0.00 0.00 0.00 69 1018.1
20220628053255 79 106 0.0 5.0 0.00 0.00 0.00 69 1018.2
20220628052755 80 91 0.0 5.0 0.00 0.00 0.00 68 1018.2
20220628052255 80 90 0.0 4.0 0.00 0.00 0.00 68 1018.3
20220628051755 80 88 0.0 4.0 0.00 0.00 0.00 68 1018.3
20220628051256 80 55 1.0 8.0 0.00 0.00 0.00 67 1018.3
20220628050755 80 77 1.0 8.0 0.00 0.00 0.00 67 1018.3
20220628050256 81 87 1.0 4.0 0.00 0.00 0.00 67 1018.4
20220628045755 81 68 1.0 4.0 0.00 0.00 0.00 67 1018.3
20220628045254 81 58 1.0 4.0 0.00 0.00 0.00 67 1018.3
20220628044753 81 47 0.0 4.0 0.00 0.00 0.00 67 1018.3
20220628044247 81 88 1.0 4.0 0.00 0.00 0.00 67 1018.3
20220628043747 81 88 1.0 5.0 0.00 0.00 0.00 66 1018.1
20220628043247 81 60 1.0 5.0 0.00 0.00 0.00 66 1018.2
20220628042745 81 84 0.0 4.0 0.00 0.00 0.00 66 1018.1
20220628042245 82 109 0.0 4.0 0.00 0.00 0.00 66 1018.0
20220628041745 82 344 1.0 6.0 0.00 0.00 0.00 66 1018.0
20220628041240 82 74 1.0 9.0 0.00 0.00 0.00 65 1018.0
20220628040740 82 192 2.0 9.0 0.00 0.00 0.00 65 1017.9
20220628040241 82 89 2.0 7.0 0.00 0.00 0.00 65 1017.9
20220628035741 83 65 2.0 7.0 0.00 0.00 0.00 64 1017.8